This demonstration page uses our WeatherBlox Daily Observations layout. Learn more.

Left ArrowRight Arrow

34.02893, -84.19858

Hourly Observations for May 12, 2022

Temp ( °F °C ) Dew Point ( °F °C ) Humidity (%) Winds ( mph kmh ) Pressure ( in mb ) Visibility ( mi km ) Precip ( " mm )
12:53 am 00:53 Clear 64 17.8 56 13.3 75 75 Calm 30.09 1019 10 16 0.00 0.00
1:53 am 01:53 Mostly Clear 63 17.2 56 13.3 78 78 Calm 30.08 1019 10 16 0.00 0.00
2:53 am 02:53 Clear 64 17.8 55 12.8 73 73 Calm 30.07 1018 10 16 0.00 0.00
3:53 am 03:53 Clear 62 16.7 53 11.7 73 73 Calm 30.07 1018 10 16 0.00 0.00
4:53 am 04:53 Clear 59 15 52 11.1 78 78 Calm 30.07 1018 10 16 0.00 0.00
5:53 am 05:53 Clear 61 16.1 52 11.1 72 72 Calm 30.09 1019 10 16 0.00 0.00
6:53 am 06:53 Sunny 61 16.1 51 10.6 70 70 Calm 30.11 1020 10 16 0.00 0.00
7:53 am 07:53 Sunny 64 17.8 50 10 60 60 VRB 5 7 30.12 1020 10 16 0.00 0.00
8:53 am 08:53 Sunny 67 19.4 51 10.6 57 57 VRB 6 9 30.12 1020 10 16 0.00 0.00
9:53 am 09:53 Sunny 70 21.1 54 12.2 57 57 VRB 7 11 30.11 1020 10 16 0.00 0.00
10:53 am 10:53 Sunny 74 23.3 55 12.8 52 52 ENE 5 7 30.09 1019 10 16 0.00 0.00
11:53 am 11:53 Sunny 77 25 55 12.8 47 47 VRB 7 11 30.08 1019 10 16 0.00 0.00
12:53 pm 12:53 Sunny 79 26.1 55 12.8 44 44 NNE 5 7 30.06 1018 10 16 0.00 0.00
1:53 pm 13:53 Sunny 82 27.8 55 12.8 40 40 N 12 19 30.04 1017 10 16 0.00 0.00
2:53 pm 14:53 Mostly Sunny 83 28.3 55 12.8 38 38 N 9 15 30.01 1016 10 16 0.00 0.00
3:53 pm 15:53 Sunny 83 28.3 54 12.2 37 37 VRB 5 7 29.99 1016 10 16 0.00 0.00
4:53 pm 16:53 Mostly Sunny 83 28.3 54 12.2 37 37 NE 8 13 29.97 1015 10 16 0.00 0.00
5:53 pm 17:53 Partly Cloudy 83 28.3 55 12.8 38 38 VRB 7 11 29.96 1015 10 16 0.00 0.00
6:53 pm 18:53 Mostly Sunny 82 27.8 55 12.8 40 40 VRB 3 6 29.96 1014 10 16 0.00 0.00
7:53 pm 19:53 Mostly Sunny 79 26.1 54 12.2 42 42 VRB 3 6 29.96 1015 10 16 0.00 0.00
8:53 pm 20:53 Clear 76 24.4 54 12.2 47 47 VRB 3 6 29.98 1015 10 16 0.00 0.00
9:53 pm 21:53 Clear 74 23.3 55 12.8 52 52 Calm 30.00 1016 10 16 0.00 0.00
10:53 pm 22:53 Clear 72 22.2 55 12.8 55 55 E 3 6 30.01 1016 10 16 0.00 0.00
11:53 pm 23:53 Clear 70 21.1 56 13.3 61 61 undefined N/A 30.02 1017 10 16 0.00 0.00

Powered by AerisWeather